This is the latest recevied weather packets stored in our database for station/object DM4XI-13. If no packets are shown the sender has not sent any weather packets the latest 10 day(s).
| Time | Temp. | Humidity | Pressure | Rain* | Wind** | Luminosity | Snow |
|---|---|---|---|---|---|---|---|
| 1778008736 | 13.89° C | 88% | 1004.5 hPa | 0 mm | 1.34 m/s, 263° | 0 W/m² | - |
| 1778008675 | 13.89° C | 88% | 1004.7 hPa | 0 mm | 1.34 m/s, 272° | 0 W/m² | - |
| 1778008614 | 13.89° C | 88% | 1004.8 hPa | 0 mm | 1.79 m/s, 272° | 0 W/m² | - |
| 1778008553 | 13.89° C | 88% | 1004.8 hPa | 0 mm | 1.34 m/s, 307° | 0 W/m² | - |
| 1778008492 | 13.89° C | 88% | 1004.6 hPa | 0 mm | 1.34 m/s, 358° | 0 W/m² | - |
| 1778008431 | 13.89° C | 88% | 1004.7 hPa | 0 mm | 2.24 m/s, 302° | 0 W/m² | - |
| 1778008370 | 13.89° C | 88% | 1004.6 hPa | 0 mm | 1.79 m/s, 301° | 0 W/m² | - |
| 1778008309 | 13.89° C | 88% | 1004.7 hPa | 0 mm | 2.68 m/s, 297° | 0 W/m² | - |
| 1778008248 | 13.33° C | 88% | 1004.6 hPa | 0 mm | 1.34 m/s, 233° | 0 W/m² | - |
| 1778008187 | 13.33° C | 88% | 1004.7 hPa | 0 mm | 2.24 m/s, 336° | 0 W/m² | - |
| 1778008126 | 13.33° C | 88% | 1004.5 hPa | 0 mm | 2.68 m/s, 293° | 0 W/m² | - |
| 1778008065 | 13.33° C | 88% | 1004.5 hPa | 0 mm | 1.79 m/s, 313° | 0 W/m² | - |
| 1778008004 | 13.33° C | 88% | 1004.5 hPa | 0 mm | 1.79 m/s, 358° | 0 W/m² | - |
| 1778007943 | 13.33° C | 88% | 1004.4 hPa | 0 mm | 2.24 m/s, 303° | 0 W/m² | - |
| 1778007882 | 13.33° C | 88% | 1004.5 hPa | 0 mm | 0.89 m/s, 296° | 0 W/m² | - |
| 1778007822 | 13.33° C | 88% | 1004.5 hPa | 0 mm | 1.34 m/s, 326° | 0 W/m² | - |
| 1778007760 | 13.33° C | 88% | 1004.5 hPa | 0 mm | 2.68 m/s, 325° | 0 W/m² | - |
| 1778007700 | 13.33° C | 88% | 1004.5 hPa | 0 mm | 0.89 m/s, 231° | 0 W/m² | - |
| 1778007639 | 13.33° C | 88% | 1004.4 hPa | 0 mm | 0.45 m/s, 237° | 0 W/m² | - |
| 1778007578 | 13.89° C | 88% | 1004.4 hPa | 0 mm | 0.89 m/s, 185° | 0 W/m² | - |
| 1778007516 | 13.89° C | 87% | 1004.4 hPa | 0 mm | 0.89 m/s, 244° | 0 W/m² | - |
| 1778007456 | 13.89° C | 87% | 1004.2 hPa | 0 mm | 0.89 m/s, 217° | 0 W/m² | - |
| 1778007394 | 13.89° C | 87% | 1004.2 hPa | 0 mm | 1.79 m/s, 241° | 0 W/m² | - |
| 1778007333 | 13.89° C | 87% | 1004.2 hPa | 0 mm | 0.45 m/s, 232° | 0 W/m² | - |
| 1778007272 | 13.89° C | 87% | 1004.3 hPa | 0 mm | 1.34 m/s, 271° | 0 W/m² | - |
* Rain latest hour (hover to see other rain measurements)
** Current wind speed in m/s (hover to see current wind gust speed)